Rock Springs, WY

4:57 AM MDT on July 21, 2017 (GMT -0600)
Rock Springs-Sweetwater

Weather History for KRKS - June, 2013

Change the Weather History Date:

Sunday, June 16, 2013

  Actual Average Record
Temperature  
Mean Temperature 67 °F 61 °F  
Max Temperature 83 °F 75 °F 91 °F (2007)
Min Temperature 50 °F 47 °F 31 °F (1957)
Degree Days  
Heating Degree Days 0 5  
Month to date heating degree days 49 118  
Since 1 June heating degree days 49 118  
Since 1 July heating degree days 7633 8093  
Cooling Degree Days 2 1  
Month to date cooling degree days 28 8  
Year to date cooling degree days 29 9  
Since 1 June cooling degree days 28 8  
Growing Degree Days 17 (Base 50)    
Moisture  
Dew Point 18 °F    
Average Humidity 17    
Maximum Humidity 26    
Minimum Humidity 7    
Precipitation  
Precipitation 0.00 in 0.02 in 0.50 in (1957)
Month to date precipitation T 0.48  
Year to date precipitation 0.56 4.21  
Sea Level Pressure  
Sea Level Pressure 29.95 in    
Wind  
Wind Speed 7 mph (SW)    
Max Wind Speed 36 mph    
Max Gust Speed 44 mph    
Visibility 10 miles    
Events Thunderstorm    
T = Trace of Precipitation, MM = Missing Value Source: NWS Daily Summary

Daily Weather History Graph

Daily Weather History Graph

Search for Another Location

Airport or City:

Trip Planner

Search our weather history database for the weather conditions in past years. The results will help you decide how hot, cold, wet, or windy it might be!

Date:

Astronomy

Jun. 16, 2013 Rise Set
Actual Time 5:41 AM MDT 8:52 PM MDT
Civil Twilight 5:07 AM MDT 9:26 PM MDT
Nautical Twilight 4:23 AM MDT 10:10 PM MDT
Astronomical Twilight 3:31 AM MDT 11:03 PM MDT
Moon 1:26 PM MDT (6/16) 12:53 AM MDT (6/16)
Length of Visible Light 16h 19m
Length of Day
15h 11m
Waxing Crescent, 50% of the Moon is Illuminated
Jun 16
Waxing Crescent
Jun 23
Full
Jun 29
Last Quarter
Jul 8
New
Jul 15
First Quarter

Hourly Weather History & Observations

Time (MDT) Temp. Dew Point Humidity Pressure Visibility Wind Dir Wind Speed Gust Speed Precip Events Conditions
12:54 AM 57.9 °F 18.0 °F 21% 29.94 in 10.0 mi SSW 6.9 mph - N/A   Clear
1:54 AM 57.0 °F 17.1 °F 21% 29.93 in 10.0 mi SW 4.6 mph - N/A   Clear
2:54 AM 57.9 °F 16.0 °F 19% 29.92 in 10.0 mi Calm Calm - N/A   Clear
3:54 AM 54.0 °F 17.1 °F 23% 29.95 in 10.0 mi SSE 6.9 mph - N/A   Clear
4:54 AM 53.1 °F 16.0 °F 23% 29.95 in 10.0 mi Calm Calm - N/A   Clear
5:54 AM 52.0 °F 16.0 °F 24% 29.97 in 10.0 mi Calm Calm - N/A   Clear
6:54 AM 53.1 °F 18.0 °F 25% 29.97 in 10.0 mi Calm Calm - N/A   Clear
7:54 AM 57.0 °F 18.0 °F 22% 29.98 in 10.0 mi Calm Calm - N/A   Clear
8:54 AM 64.0 °F 19.9 °F 18% 29.98 in 10.0 mi Calm Calm - N/A   Clear
9:54 AM 70.0 °F 19.0 °F 14% 29.96 in 10.0 mi Calm Calm - N/A   Clear
10:54 AM 75.0 °F 19.9 °F 13% 29.92 in 10.0 mi Variable 5.8 mph - N/A   Clear
11:54 AM 78.1 °F 21.0 °F 12% 29.91 in 10.0 mi WSW 11.5 mph 17.3 mph N/A   Scattered Clouds
12:54 PM 77.0 °F 16.0 °F 10% 29.91 in 10.0 mi WSW 15.0 mph 19.6 mph N/A   Clear
1:54 PM 79.0 °F 18.0 °F 10% 29.90 in 10.0 mi SSW 8.1 mph 25.3 mph N/A   Clear
2:29 PM 75.2 °F 19.4 °F 12% 30.17 in 10.0 mi Calm Calm - N/A Thunderstorm Mostly Cloudy
2:45 PM 75.2 °F 23.0 °F 14% 30.15 in 10.0 mi SSW 27.6 mph 32.2 mph N/A   Scattered Clouds
2:54 PM 75.0 °F 24.1 °F 15% 29.90 in 10.0 mi SSW 21.9 mph 35.7 mph N/A   Partly Cloudy
3:01 PM 75.2 °F 24.8 °F 15% 30.15 in 10.0 mi South 20.7 mph 27.6 mph N/A   Partly Cloudy
3:54 PM 79.0 °F 21.0 °F 12% 29.88 in 10.0 mi Calm Calm - N/A   Partly Cloudy
4:54 PM 82.0 °F 18.0 °F 9% 29.86 in 10.0 mi SW 9.2 mph - N/A   Clear
5:54 PM 81.0 °F 10.0 °F 7% 29.86 in 10.0 mi NNW 6.9 mph - N/A   Clear
6:20 PM 80.6 °F 10.4 °F 7% 30.11 in 10.0 mi NW 10.4 mph - N/A   Clear
6:54 PM 81.0 °F 12.0 °F 7% 29.86 in 10.0 mi West 17.3 mph 23.0 mph N/A   Clear
7:54 PM 78.1 °F 12.0 °F 8% 29.86 in 10.0 mi WNW 16.1 mph 20.7 mph N/A   Clear
8:54 PM 75.0 °F 10.9 °F 9% 29.87 in 10.0 mi WSW 12.7 mph - N/A   Clear
9:54 PM 69.1 °F 28.0 °F 22% 29.90 in 10.0 mi SSE 12.7 mph - N/A   Clear
10:54 PM 66.9 °F 30.0 °F 25% 29.91 in 10.0 mi SSE 5.8 mph - N/A   Partly Cloudy
11:54 PM 64.0 °F 23.0 °F 21% 29.91 in 10.0 mi NW 5.8 mph - N/A   Partly Cloudy